Video & TV

Lees voor het posten de FAQ.

Als je iets zoekt op het forum kun je de zoekmachine raadplegen.

Onderwerp Replies Naam starter Datum
Panasonic TH42PV60E input in beeld 3 High met Henk 04-11-2018 10:13:17
LG 42lv375 storings code 3 vraag1 02-11-2018 18:46:42
Philips tv toont Röntgen achtig beeld 16 Tijs67 01-11-2018 22:27:06
Philips 42PFL7864H/12 13 SNJ 01-11-2018 19:45:45
AB, kontaktveertjes batt roesten steeds 2 fantomas 01-11-2018 18:42:22
Defecte voeding Epson TW-700 Beamer ? 9 R.Appel 01-11-2018 16:44:15
welk panel zit er in een Samsung UE32B6000 6 Bart64 01-11-2018 15:13:32
phlilips PFL8404H/12 defect 1 siebo 01-11-2018 11:28:31
Samsung tv le32a436t1d, bn44-00192b psu reparatie vraagje 12 brains 30-10-2018 18:40:55
37pfl8404 tv geen backlight en pfc 6 siebo 25-10-2018 23:00:36
Sony Playstation 2 13 GM Tech 25-10-2018 10:51:19
Sony Bravia LCD geen beeld wel backlight 5 Bart64 23-10-2018 20:49:35
Philips 40PFL3008H/12 VES2.2E LA 4 akkie2 23-10-2018 12:26:22
JVC HR-V520 hifi video wil band laden bij aanzetten. 7 Tien 23-10-2018 12:23:42
Panasonic TX 49DX650E 4 Louis123 22-10-2018 18:45:42
laptop witte zwarte streepjes 1 RonaldVerhau 22-10-2018 17:45:37
32PFL6007H/12 valt regelmatig uit 8 Jan-Paul 21-10-2018 17:40:12
TIP met Ziggo Testbeeld en Tip voor beter geluid 13 pararuud 21-10-2018 14:52:37
42PFL7404 start niet 3 Camiel 20-10-2018 16:13:55
Sharp TV LC42XL2E update via usb lukt niet. 13 vand.m 20-10-2018 10:14:57
Panasonic 32LX700F 0 buzzy 16-10-2018 18:51:21
philips 46pfl5507h/12 valt uit. 4 Kimboding 16-10-2018 10:26:23
Sony KDL-32W5500 lcd tv led blinkt 8 keer 5 siebo 16-10-2018 10:24:13
samsung UE55ES6100 geen beeld wel geluid 3 knaak 14-10-2018 16:37:46
F-connector types 2 DJSmiley 14-10-2018 13:47:09
LG 32LE5300 ontvangt niets via antenne 13 Zonnepaneeltje 13-10-2018 19:57:11
Samsung tuner DCB H360RS 0 pararuud 13-10-2018 19:26:47
Samsung UE55MU7000 openmaken 10 maartenbakker 11-10-2018 12:33:02
TNY277PN wordt heet in 42PFL3905 4 Franssel 09-10-2018 17:11:34
Samsung LTF400HJ05 led tv enkel relaisklik. 10 Mik 09-10-2018 14:04:34
Sony TV - KV-32HQ100B - Beeldbuis start niet meer Sony TV - KV-32HQ100B - Beeldbuis start niet meer 1 2 laatste 26 bluemagic 08-10-2018 22:08:14
42pfl9964 Philips geen backlight 2 philipslover 08-10-2018 01:09:08
atari sc1224 crt monitor geen beeld na veranderen resolutie 6 siebo 07-10-2018 16:08:00
meerdere cameras op 1 monitor meerdere cameras op 1 monitor 1 2 laatste 31 kitman 07-10-2018 10:41:26
Barco elm r12 lamp power supply probleem 3 Svennie366 07-10-2018 01:01:21
Oude Indesit TV aansluiten op analoge kabel Oude Indesit TV aansluiten op analoge kabel 1 2 3 4 5 laatste 103 SantiOriginal 06-10-2018 23:02:03
User en/of service manual Sony TT-3000E 3 nk006 06-10-2018 11:08:19
gevonden Proximus isb8320-e v5 decoder als 2de decoder gebruiken? 1 brains 04-10-2018 22:31:49
Onderdeel identificeren.. 23 MartinV 02-10-2018 23:20:32
Samsung tv met beeld storing 3 Burrel 30-09-2018 18:39:42
weerstand waarde 8 lipske 30-09-2018 09:28:29
'achteruitrijcamera' aansluiten op tv 14 Arc0ss 29-09-2018 22:17:31
Philips TV 22TE4L start niet op. Philips TV 22TE4L start niet op. 1 2 laatste 26 Thehof 29-09-2018 09:49:34
Panasonic TV TX-L47WT50E 2 chipa 28-09-2018 21:01:45
philips cineos 32pf9830/10 9 robbedoes 28-09-2018 18:43:42
philips lcd tv 22PFL5403D/10 geen beeld philips lcd tv 22PFL5403D/10 geen beeld 1 2 laatste 37 JimA 28-09-2018 15:49:37
HDMI dropouts Onkyo AV receiver/beamer/CAT5e 19 kohen 25-09-2018 23:42:32
SONY PFM-42B1E plasma monitor probleem, zie foto 4 r-p 24-09-2018 19:00:51
Geen digitale zenders op Philips 32PFL7404H/12 11 BertPleizier 24-09-2018 18:52:36
Philips 37PFL9604/H12 : backlight will switch off after some time on 14 oobabeloo 24-09-2018 18:50:20